Regional Weather Roundup
Issued by NWS Burlington, VT

Home | Current Version | Previous Version | Text Only | Print | Product List | Glossary On
Versions: 1 2 3 4 5 6 7 8 9 10 11 12 13 14 15 16 17 18 19 20 21 22 23 24 25 26 27 28 29 30 31 32 33 34 35 36 37 38 39 40 41 42 43 44 45 46 47 48 49 50
000
ASUS41 KBTV 252310
RWRBTV
VERMONT REGIONAL WEATHER ROUNDUP
NATIONAL WEATHER SERVICE BURLINGTON VT
700 PM EDT WED MAY 25 2016

NOTE: "FAIR" INDICATES FEW OR NO CLOUDS BELOW 12,000 FEET WITH NO
SIGNIFICANT WEATHER AND/OR OBSTRUCTIONS TO VISIBILITY.

* THESE REPORTS ARE NOT UNDER NWS QUALITY CONTROL AND/OR DO NOT
  REPORT WEATHER SUCH AS PRECIPITATION AND FOG.

VTZ001>019-260000-
_____VERMONT_____


CITY           SKY/WX    TMP DP  RH WIND       PRES   REMARKS
BURLINGTON     FAIR      80  51  36 N8        29.96R
MONTPELIER     PTSUNNY   74  51  44 N8        30.02R
MORRISVILLE    CLOUDY    75  50  41 N6        30.00R
ST. JOHNSBURY*   N/A     76  52  43 MISG      29.95R
LYNDONVILLE*   CLOUDY    71  50  47 W8        30.00R
MIDDLEBURY*    FAIR      78  53  42 NW7       29.96R
RUTLAND*       FAIR      78  54  43 SW8       29.98S
SPRINGFIELD    FAIR      79  51  37 W12       29.97R
HIGHGATE*      FAIR      77  55  45 NW5       29.96R
NEWPORT*       FAIR      72  53  52 NW5       29.99R
BENNINGTON     FAIR      77  56  48 S3        30.01S
SUTTON*          N/A     70 N/A N/A MISG        N/A

_____LAKE CHAMPLAIN_____


CITY           SKY/WX    TMP DP  RH WIND       PRES   REMARKS
COLCHESTER RF*   N/A     75  54  46 NE12        N/A
DIAMOND ISL*     N/A     75  52  43 NW18        N/A

$$

NYZ007-026>031-035-052-083-087-260000-
_____NORTHERN NEW YORK_____


CITY           SKY/WX    TMP DP  RH WIND       PRES   REMARKS
PLATTSBURGH    LGT RAIN  78  54  43 NW3       29.96R
SARANAC LAKE   PTSUNNY   73  48  41 W8        30.03R
MASSENA        MOSUNNY   78  54  43 N8        30.00R
OGDENSBURG*    PTSUNNY   75  55  50 NW9       30.01R
POTSDAM*       PTSUNNY   79  59  50 N7        30.01R
WATERTOWN      MOSUNNY   73  51  46 SW6       30.01S
FT DRUM        MOSUNNY   75  52  43 SW8       30.02S
ALBANY         MOSUNNY   82  51  34 NW14      30.00R
GLENS FALLS    SUNNY     83  51  33 W12       29.97R

$$
NHZ002-005-011-260000-
_____NEW HAMPSHIRE_____


CITY           SKY/WX    TMP DP  RH WIND       PRES   REMARKS
LEBANON        SUNNY     81  53  37 SW7       29.94S
KEENE          CLOUDY    81  52  36 SW7       29.99S
MT WASHINGTON  LGT RAIN  50  43  76 W17         N/A
PLYMOUTH       FAIR      81  47  30 W3G17     29.92S
WHITEFIELD     CLOUDY    73  51  46 N3        29.97R

$$

_____REGIONAL QUEBEC LOCATIONS_____


CITY           SKY/WX    TMP DP  RH WIND       PRES   REMARKS
MONTREAL       MOSUNNY   75  54  46 NW17      29.97R
QUEBEC CITY    PTSUNNY   66  52  59 NW18G26   29.93R
SHERBROOKE     MOSUNNY   70  55  60 W9        29.96R

_____REGIONAL ONTARIO LOCATIONS_____


CITY           SKY/WX    TMP DP  RH WIND       PRES   REMARKS
OTTAWA         MOSUNNY   75  54  46 N12G17    30.02R

______KEY______
VSB  - VISIBILITY IN MILES
WCI  - WIND CHILL INDEX
HX   - HEAT INDEX
$$
NNNN




USA.gov is the U.S. government's official web portal to all federal, state and local government web resources and services.